COSMOS 1752

Satellite information

Favourite Embed

Satellite Type and Status

PAYLOADIN ORBIT

Key statistics

Satellite COSMOS 1752 at a glance.

Uptime

14220

Days in orbit

Revolutions

≈ 12.5

Per day

Orbit

LEO

Low Earth Orbit

Inclination

74.0

Latest

Satellite identification and parameters

Extended collection of information and parameters for COSMOS 1752.

Object identification

Identified? True

Debris? False

Object name: COSMOS 1752

International designator: 1986-042E

Object number (NORAD): 16762

Object ID (CCSDS): 16762

Country: COMMONWEALTH OF INDEPENDENT STATES (CIS)

Current information (Y/N): Y

RCS size: MEDIUM

Orbital parameters

Period: 115.476 minutes

Inclination: 74.0182 deg

SMA: 7855.164 km

Apoapsis: 1486.564 km

Periapsis: 1467.495 km

RAAN: 240.9143 deg

Eccentricy: 0.0012138

Argument of periapsis: 256.8202 deg

Mean anomaly: 213.8253 deg

Mean motion: 12.47009806 rev/day

Mean motion (dot): -0.0000002 rev/day2

B* drag term: -0.000025584 1/REarth

Two-line elements (TLE)

Creation date: May 12, 2025, 2:31 a.m.

Reference frame: TEME

Reference center: EARTH

Epoch: May 11, 2025, 5:35 p.m. UTC

TLE line 0: 0 COSMOS 1752

TLE line 1: 1 16762U 86042E 25131.73264613 -.00000020 00000-0 -25584-4 0 9998

TLE line 2: 2 16762 74.0182 240.9143 0012138 256.8202 213.8253 12.47009806772275

Live tracking on map

Real-time ground track for satellite COSMOS 1752.

In-orbit conjunctions

There are no conjunctions computed for COSMOS 1752, at the moment. Check back to stay up to date, as we update our databases every day.

Go to all conjunctions

Associated space launch

Military communications satellites

COSMOS 1752 was lifted into orbit during the mission ‘Kosmos-3M | Strela-1M 305-312’, on board a Kosmos-3M space rocket.

The launch took place on June 6, 1986, 3:57 a.m. from 132/1 (132L).

For more information about the launch, click the button.

Launch to space Kosmos-3M | Strela-1M 305-312
Kosmos-3M | Strela-1M 305-312

Agency: N/A

Status: Launch Successful

Launch date: June 6, 1986, 3:57 a.m. UTC

Rocket: Kosmos-3M

Launch pad: 132/1 (132L)

Location: Plesetsk Cosmodrome, Russian Federation

...

Latest news about this satellite

There are no fresh news available about this satellite. Check back as we update our databases every day.


Newsletter sign-up

Weekly statistics, charts and insights to help you stay on top of the space industry.